Time,TemperatureF,DewpointF,PressureIn,WindDirection,WindDirectionDegrees,WindSpeedMPH,WindSpeedGustMPH,Humidity,HourlyPrecipIn,Conditions,Clouds,dailyrainin,SoftwareType,DateUTC
2013-06-23 00:01:00,76.0,66.0,29.96,SW,219,1.0,5.0,71,0.00,,,0.00,,2013-06-23 04:01:00,
2013-06-23 00:11:00,76.0,66.0,29.97,SE,140,0.0,4.0,71,0.00,,,0.00,,2013-06-23 04:11:00,
2013-06-23 00:21:00,76.0,66.0,29.97,SE,140,0.0,4.0,71,0.00,,,0.00,,2013-06-23 04:21:00,
2013-06-23 00:31:00,76.0,66.0,29.97,SE,140,0.0,4.0,71,0.00,,,0.00,,2013-06-23 04:31:00,
2013-06-23 00:42:00,76.0,66.0,29.97,SE,140,0.0,4.0,71,0.00,,,0.00,,2013-06-23 04:42:00,
2013-06-23 00:52:00,76.0,66.0,29.97,WNW,290,0.0,3.0,71,0.00,,,0.00,,2013-06-23 04:52:00,
2013-06-23 01:01:00,76.0,66.0,29.97,WNW,290,0.0,3.0,71,0.00,,,0.00,,2013-06-23 05:01:00,
2013-06-23 01:11:00,76.0,66.0,29.98,NW,311,1.0,5.0,71,0.00,,,0.00,,2013-06-23 05:11:00,
2013-06-23 01:22:00,75.0,64.0,29.98,SE,128,1.0,4.0,68,0.00,,,0.00,,2013-06-23 05:22:00,
2013-06-23 01:32:00,75.0,64.0,29.98,SSE,157,1.0,4.0,68,0.00,,,0.00,,2013-06-23 05:32:00,
2013-06-23 01:41:00,75.0,64.0,29.98,South,186,1.0,4.0,68,0.00,,,0.00,,2013-06-23 05:41:00,
2013-06-23 01:51:00,74.0,63.0,29.97,SSW,196,0.0,2.0,68,0.00,,,0.00,,2013-06-23 05:51:00,
2013-06-23 02:02:00,74.0,63.0,29.98,NNE,12,0.0,3.0,68,0.00,,,0.00,,2013-06-23 06:02:00,
2013-06-23 02:12:00,74.0,63.0,29.98,SSE,157,1.0,8.0,68,0.00,,,0.00,,2013-06-23 06:12:00,
2013-06-23 02:22:00,74.0,63.0,29.98,NW,320,0.0,3.0,68,0.00,,,0.00,,2013-06-23 06:22:00,
2013-06-23 02:33:00,74.0,62.0,29.97,WSW,244,0.0,4.0,67,0.00,,,0.00,,2013-06-23 06:33:00,
2013-06-23 02:43:00,74.0,62.0,29.97,NNW,345,1.0,6.0,67,0.00,,,0.00,,2013-06-23 06:43:00,
2013-06-23 02:52:00,74.0,62.0,29.96,NW,311,0.0,6.0,67,0.00,,,0.00,,2013-06-23 06:52:00,
2013-06-23 03:02:00,73.0,61.0,29.96,West,264,0.0,3.0,67,0.00,,,0.00,,2013-06-23 07:02:00,
2013-06-23 03:12:00,73.0,61.0,29.96,NNE,13,0.0,6.0,67,0.00,,,0.00,,2013-06-23 07:12:00,
2013-06-23 03:22:00,73.0,61.0,29.96,ESE,107,1.0,8.0,67,0.00,,,0.00,,2013-06-23 07:22:00,
2013-06-23 03:34:00,73.0,61.0,29.96,South,186,0.0,2.0,67,0.00,,,0.00,,2013-06-23 07:34:00,
2013-06-23 03:43:00,73.0,61.0,29.96,SSW,210,0.0,5.0,67,0.00,,,0.00,,2013-06-23 07:43:00,
2013-06-23 03:53:00,73.0,61.0,29.96,NNW,336,0.0,1.0,67,0.00,,,0.00,,2013-06-23 07:53:00,
2013-06-23 04:02:00,73.0,62.0,29.94,NNW,336,0.0,1.0,69,0.00,,,0.00,,2013-06-23 08:02:00,
2013-06-23 04:12:00,72.0,62.0,29.95,NNW,336,0.0,0.0,70,0.00,,,0.00,,2013-06-23 08:12:00,
2013-06-23 04:22:00,71.0,61.0,29.95,NNW,336,0.0,0.0,71,0.00,,,0.00,,2013-06-23 08:22:00,
2013-06-23 04:34:00,71.0,62.0,29.95,NNW,336,0.0,0.0,72,0.00,,,0.00,,2013-06-23 08:34:00,
2013-06-23 04:43:00,70.0,61.0,29.95,NNW,336,0.0,0.0,73,0.00,,,0.00,,2013-06-23 08:43:00,
2013-06-23 04:53:00,70.0,62.0,29.96,NNW,336,0.0,0.0,76,0.00,,,0.00,,2013-06-23 08:53:00,
2013-06-23 05:02:00,69.0,61.0,29.96,NNW,336,0.0,0.0,77,0.00,,,0.00,,2013-06-23 09:02:00,
2013-06-23 05:12:00,69.0,62.0,29.98,NNW,336,0.0,1.0,78,0.00,,,0.00,,2013-06-23 09:12:00,
2013-06-23 05:22:00,69.0,62.0,29.99,NNW,336,0.0,1.0,78,0.00,,,0.00,,2013-06-23 09:22:00,
2013-06-23 05:34:00,69.0,62.0,30.00,South,183,0.0,3.0,78,0.00,,,0.00,,2013-06-23 09:34:00,
2013-06-23 05:43:00,69.0,61.0,30.00,SSE,152,0.0,3.0,77,0.00,,,0.00,,2013-06-23 09:43:00,
2013-06-23 05:53:00,70.0,62.0,30.01,SSE,153,0.0,2.0,76,0.00,,,0.00,,2013-06-23 09:53:00,
2013-06-23 06:02:00,70.0,62.0,30.01,SSE,153,0.0,2.0,75,0.00,,,0.00,,2013-06-23 10:02:00,
2013-06-23 06:11:00,70.0,61.0,30.01,SSE,153,0.0,2.0,74,0.00,,,0.00,,2013-06-23 10:11:00,
2013-06-23 06:22:00,70.0,61.0,30.00,SSE,153,0.0,1.0,74,0.00,,,0.00,,2013-06-23 10:22:00,
2013-06-23 06:34:00,70.0,61.0,29.99,SSE,153,0.0,1.0,74,0.00,,,0.00,,2013-06-23 10:34:00,
2013-06-23 06:43:00,70.0,62.0,29.99,SSE,153,0.0,1.0,75,0.00,,,0.00,,2013-06-23 10:43:00,
2013-06-23 06:53:00,70.0,62.0,29.98,SSE,153,0.0,2.0,76,0.00,,,0.00,,2013-06-23 10:53:00,
2013-06-23 07:01:00,70.0,62.0,29.97,SSE,148,0.0,3.0,77,0.00,,,0.00,,2013-06-23 11:01:00,
2013-06-23 07:11:00,70.0,62.0,29.97,SE,136,0.0,3.0,77,0.00,,,0.00,,2013-06-23 11:11:00,
2013-06-23 07:22:00,70.0,63.0,29.97,ESE,123,0.0,4.0,78,0.00,,,0.00,,2013-06-23 11:22:00,
2013-06-23 07:33:00,70.0,63.0,29.97,ESE,123,0.0,1.0,78,0.00,,,0.00,,2013-06-23 11:33:00,
2013-06-23 07:43:00,69.0,62.0,29.97,ESE,123,0.0,1.0,79,0.00,,,0.00,,2013-06-23 11:43:00,
2013-06-23 07:53:00,70.0,63.0,29.97,ESE,123,0.0,2.0,79,0.00,,,0.00,,2013-06-23 11:53:00,
2013-06-23 08:01:00,70.0,63.0,29.97,ESE,123,0.0,3.0,79,0.00,,,0.00,,2013-06-23 12:01:00,
2013-06-23 08:12:00,70.0,63.0,29.97,ESE,123,0.0,1.0,79,0.00,,,0.00,,2013-06-23 12:12:00,
2013-06-23 08:22:00,70.0,63.0,29.98,ESE,123,0.0,1.0,79,0.00,,,0.00,,2013-06-23 12:22:00,
2013-06-23 08:33:00,70.0,63.0,29.97,ESE,123,0.0,2.0,79,0.00,,,0.00,,2013-06-23 12:33:00,
2013-06-23 08:42:00,71.0,64.0,29.97,ESE,123,0.0,2.0,78,0.00,,,0.00,,2013-06-23 12:42:00,
2013-06-23 08:53:00,72.0,64.0,29.96,ESE,119,0.0,5.0,76,0.00,,,0.00,,2013-06-23 12:53:00,
2013-06-23 09:02:00,73.0,64.0,29.96,ESE,115,1.0,4.0,74,0.00,,,0.00,,2013-06-23 13:02:00,
2013-06-23 09:11:00,74.0,64.0,29.95,ESE,110,1.0,4.0,72,0.00,,,0.00,,2013-06-23 13:11:00,
2013-06-23 09:23:00,75.0,65.0,29.96,SSE,150,2.0,8.0,70,0.00,,,0.00,,2013-06-23 13:23:00,
2013-06-23 09:34:00,75.0,65.0,29.95,ESE,108,2.0,7.0,70,0.00,,,0.00,,2013-06-23 13:34:00,
2013-06-23 09:43:00,76.0,66.0,29.95,East,87,1.0,5.0,71,0.00,,,0.00,,2013-06-23 13:43:00,
2013-06-23 09:53:00,77.0,66.0,29.96,ESE,119,1.0,5.0,68,0.00,,,0.00,,2013-06-23 13:53:00,
2013-06-23 10:04:00,77.0,66.0,29.96,SE,138,1.0,6.0,69,0.00,,,0.00,,2013-06-23 14:04:00,
2013-06-23 10:11:00,78.0,67.0,29.96,ESE,120,0.0,5.0,68,0.00,,,0.00,,2013-06-23 14:11:00,
2013-06-23 10:22:00,78.0,66.0,29.96,NNW,333,1.0,8.0,67,0.00,,,0.00,,2013-06-23 14:22:00,
2013-06-23 10:34:00,78.0,66.0,29.97,ENE,73,1.0,3.0,67,0.00,,,0.00,,2013-06-23 14:34:00,
2013-06-23 10:44:00,79.0,67.0,29.97,West,271,3.0,7.0,67,0.00,,,0.00,,2013-06-23 14:44:00,
2013-06-23 10:52:00,80.0,68.0,29.97,SSE,165,0.0,5.0,66,0.00,,,0.00,,2013-06-23 14:52:00,
2013-06-23 11:05:00,81.0,69.0,29.97,NW,308,0.0,3.0,66,0.00,,,0.00,,2013-06-23 15:05:00,
2013-06-23 11:11:00,82.0,68.0,29.97,SE,124,2.0,10.0,62,0.00,,,0.00,,2013-06-23 15:11:00,
2013-06-23 11:23:00,82.0,69.0,29.97,NNW,329,1.0,5.0,64,0.00,,,0.00,,2013-06-23 15:23:00,
2013-06-23 11:35:00,83.0,69.0,29.97,WSW,250,2.0,6.0,62,0.00,,,0.00,,2013-06-23 15:35:00,
2013-06-23 11:43:00,84.0,70.0,29.97,NNW,334,1.0,5.0,62,0.00,,,0.00,,2013-06-23 15:43:00,
2013-06-23 11:52:00,84.0,69.0,29.97,ENE,64,1.0,7.0,61,0.00,,,0.00,,2013-06-23 15:52:00,
2013-06-23 12:06:00,85.0,70.0,29.98,SSW,194,1.0,8.0,61,0.00,,,0.00,,2013-06-23 16:06:00,
2013-06-23 12:12:00,85.0,69.0,29.98,WNW,292,2.0,6.0,58,0.00,,,0.00,,2013-06-23 16:12:00,
2013-06-23 12:22:00,86.0,71.0,29.98,East,98,1.0,7.0,61,0.00,,,0.00,,2013-06-23 16:22:00,
2013-06-23 12:36:00,87.0,70.0,29.98,West,280,2.0,5.0,57,0.00,,,0.00,,2013-06-23 16:36:00,
2013-06-23 12:43:00,86.0,69.0,29.98,WNW,293,1.0,7.0,58,0.00,,,0.00,,2013-06-23 16:43:00,
2013-06-23 12:53:00,86.0,70.0,29.97,SE,131,2.0,9.0,59,0.00,,,0.00,,2013-06-23 16:53:00,
2013-06-23 13:04:00,86.0,69.0,29.97,NNW,330,1.0,6.0,58,0.00,,,0.00,,2013-06-23 17:04:00,
2013-06-23 13:12:00,86.0,69.0,29.97,WNW,294,0.0,8.0,58,0.00,,,0.00,,2013-06-23 17:12:00,
2013-06-23 13:22:00,87.0,71.0,29.97,NW,305,3.0,10.0,59,0.00,,,0.00,,2013-06-23 17:22:00,
2013-06-23 13:33:00,87.0,69.0,29.97,West,276,1.0,6.0,55,0.00,,,0.00,,2013-06-23 17:33:00,
2013-06-23 13:43:00,86.0,68.0,29.97,NW,325,5.0,12.0,55,0.00,,,0.00,,2013-06-23 17:43:00,
2013-06-23 13:53:00,86.0,69.0,29.97,WSW,244,2.0,9.0,58,0.00,,,0.00,,2013-06-23 17:53:00,
2013-06-23 14:01:00,86.0,69.0,29.97,West,265,1.0,11.0,57,0.00,,,0.00,,2013-06-23 18:01:00,
2013-06-23 14:12:00,85.0,70.0,29.97,WNW,303,2.0,10.0,60,0.00,,,0.00,,2013-06-23 18:12:00,
2013-06-23 14:22:00,83.0,67.0,29.98,NNE,12,5.0,14.0,58,0.00,,,0.00,,2013-06-23 18:22:00,
2013-06-23 14:34:00,82.0,65.0,29.98,NW,319,7.0,17.0,56,0.00,,,0.00,,2013-06-23 18:34:00,
2013-06-23 14:42:00,82.0,65.0,29.97,NW,310,4.0,10.0,56,0.00,,,0.00,,2013-06-23 18:42:00,
2013-06-23 14:53:00,82.0,65.0,29.97,NNW,343,2.0,9.0,56,0.00,,,0.00,,2013-06-23 18:53:00,
2013-06-23 15:01:00,83.0,65.0,29.95,WNW,294,2.0,11.0,54,0.00,,,0.00,,2013-06-23 19:01:00,
2013-06-23 15:11:00,84.0,66.0,29.94,NNW,340,3.0,10.0,54,0.00,,,0.00,,2013-06-23 19:11:00,
2013-06-23 15:21:00,84.0,63.0,29.94,NW,311,3.0,15.0,50,0.00,,,0.00,,2013-06-23 19:21:00,
2013-06-23 15:32:00,84.0,63.0,29.92,West,280,4.0,12.0,49,0.00,,,0.00,,2013-06-23 19:32:00,
2013-06-23 15:43:00,84.0,63.0,29.92,WNW,290,5.0,13.0,49,0.00,,,0.00,,2013-06-23 19:43:00,
2013-06-23 15:53:00,83.0,62.0,29.91,NNW,330,4.0,9.0,49,0.00,,,0.00,,2013-06-23 19:53:00,
2013-06-23 16:02:00,82.0,64.0,29.90,ENE,68,1.0,5.0,54,0.00,,,0.00,,2013-06-23 20:02:00,
2013-06-23 16:12:00,81.0,63.0,29.88,ESE,120,1.0,5.0,55,0.00,,,0.00,,2013-06-23 20:12:00,
2013-06-23 16:24:00,79.0,62.0,29.85,ESE,113,3.0,6.0,57,0.00,,,0.00,,2013-06-23 20:24:00,
2013-06-23 16:33:00,78.0,64.0,29.85,ESE,123,0.0,5.0,63,0.00,,,0.00,,2013-06-23 20:33:00,
2013-06-23 16:42:00,78.0,65.0,29.88,SE,131,0.0,3.0,64,0.00,,,0.00,,2013-06-23 20:42:00,
2013-06-23 16:53:00,78.0,63.0,29.88,SE,131,0.0,2.0,61,0.00,,,0.00,,2013-06-23 20:53:00,
2013-06-23 17:01:00,78.0,65.0,29.88,ESE,117,0.0,4.0,64,0.00,,,0.00,,2013-06-23 21:01:00,
2013-06-23 17:11:00,78.0,64.0,29.87,ESE,113,1.0,5.0,62,0.00,,,0.00,,2013-06-23 21:11:00,
2013-06-23 17:22:00,78.0,63.0,29.86,ESE,120,1.0,6.0,61,0.00,,,0.00,,2013-06-23 21:22:00,
2013-06-23 17:34:00,79.0,65.0,29.86,ESE,117,0.0,4.0,62,0.00,,,0.00,,2013-06-23 21:34:00,
2013-06-23 17:44:00,80.0,66.0,29.86,ESE,103,0.0,3.0,62,0.00,,,0.00,,2013-06-23 21:44:00,
2013-06-23 17:52:00,82.0,67.0,29.87,SE,133,0.0,3.0,61,0.00,,,0.00,,2013-06-23 21:52:00,
2013-06-23 18:01:00,83.0,68.0,29.87,SE,134,0.0,1.0,60,0.00,,,0.00,,2013-06-23 22:01:00,
2013-06-23 18:11:00,84.0,68.0,29.87,ESE,115,0.0,3.0,58,0.00,,,0.00,,2013-06-23 22:11:00,
2013-06-23 18:22:00,85.0,69.0,29.88,ESE,114,0.0,2.0,59,0.00,,,0.00,,2013-06-23 22:22:00,
2013-06-23 18:32:00,85.0,66.0,29.89,ESE,114,0.0,1.0,53,0.00,,,0.00,,2013-06-23 22:32:00,
2013-06-23 18:43:00,85.0,67.0,29.89,ESE,114,0.0,1.0,55,0.00,,,0.00,,2013-06-23 22:43:00,
2013-06-23 18:53:00,85.0,67.0,29.90,ESE,105,0.0,2.0,55,0.00,,,0.00,,2013-06-23 22:53:00,
2013-06-23 19:01:00,85.0,66.0,29.90,ESE,105,0.0,3.0,53,0.00,,,0.00,,2013-06-23 23:01:00,
2013-06-23 19:11:00,85.0,67.0,29.91,ESE,105,0.0,2.0,55,0.00,,,0.00,,2013-06-23 23:11:00,
2013-06-23 19:22:00,85.0,65.0,29.92,ESE,103,0.0,3.0,52,0.00,,,0.00,,2013-06-23 23:22:00,
2013-06-23 19:33:00,84.0,64.0,29.93,SE,138,1.0,4.0,52,0.00,,,0.00,,2013-06-23 23:33:00,
2013-06-23 19:44:00,84.0,65.0,29.92,ESE,111,1.0,3.0,53,0.00,,,0.00,,2013-06-23 23:44:00,
2013-06-23 19:52:00,83.0,65.0,29.93,West,262,1.0,5.0,54,0.00,,,0.00,,2013-06-23 23:52:00,
2013-06-23 20:01:00,82.0,65.0,29.93,ESE,113,1.0,3.0,56,0.00,,,0.00,,2013-06-24 00:01:00,
2013-06-23 20:11:00,82.0,65.0,29.93,ESE,118,0.0,3.0,57,0.00,,,0.00,,2013-06-24 00:11:00,
2013-06-23 20:22:00,81.0,65.0,29.95,ESE,118,0.0,1.0,59,0.00,,,0.00,,2013-06-24 00:22:00,
2013-06-23 20:33:00,81.0,66.0,29.95,ESE,118,0.0,0.0,61,0.00,,,0.00,,2013-06-24 00:33:00,
2013-06-23 20:42:00,80.0,66.0,29.95,ESE,118,0.0,1.0,63,0.00,,,0.00,,2013-06-24 00:42:00,
2013-06-23 20:52:00,80.0,66.0,29.95,ESE,118,0.0,0.0,62,0.00,,,0.00,,2013-06-24 00:52:00,
2013-06-23 21:01:00,79.0,65.0,29.95,ESE,118,0.0,0.0,63,0.00,,,0.00,,2013-06-24 01:01:00,
2013-06-23 21:11:00,79.0,66.0,29.95,ESE,118,0.0,0.0,64,0.00,,,0.00,,2013-06-24 01:11:00,
2013-06-23 21:22:00,78.0,65.0,29.95,ESE,118,0.0,0.0,65,0.00,,,0.00,,2013-06-24 01:22:00,
2013-06-23 21:32:00,78.0,66.0,29.95,ESE,118,0.0,0.0,67,0.00,,,0.00,,2013-06-24 01:32:00,
2013-06-23 21:42:00,77.0,65.0,29.95,ESE,118,0.0,0.0,67,0.00,,,0.00,,2013-06-24 01:42:00,
2013-06-23 21:53:00,76.0,65.0,29.95,ESE,118,0.0,0.0,69,0.00,,,0.00,,2013-06-24 01:53:00,
2013-06-23 22:02:00,76.0,65.0,29.95,ESE,118,0.0,0.0,70,0.00,,,0.00,,2013-06-24 02:02:00,
2013-06-23 22:11:00,75.0,65.0,29.95,ESE,118,0.0,0.0,70,0.00,,,0.00,,2013-06-24 02:11:00,
2013-06-23 22:22:00,75.0,66.0,29.95,ESE,118,0.0,0.0,73,0.00,,,0.00,,2013-06-24 02:22:00,
2013-06-23 22:33:00,74.0,65.0,29.96,ESE,118,0.0,0.0,74,0.00,,,0.00,,2013-06-24 02:33:00,
2013-06-23 22:42:00,74.0,65.0,29.96,ESE,118,0.0,0.0,74,0.00,,,0.00,,2013-06-24 02:42:00,
2013-06-23 22:53:00,73.0,65.0,29.96,ESE,118,0.0,0.0,75,0.00,,,0.00,,2013-06-24 02:53:00,
2013-06-23 23:11:00,72.0,64.0,29.96,ESE,118,0.0,0.0,77,0.00,,,0.00,,2013-06-24 03:11:00,
2013-06-23 23:22:00,72.0,65.0,29.97,ESE,118,0.0,0.0,78,0.00,,,0.00,,2013-06-24 03:22:00,
2013-06-23 23:33:00,72.0,65.0,29.97,ESE,118,0.0,0.0,79,0.00,,,0.00,,2013-06-24 03:33:00,
2013-06-23 23:43:00,71.0,65.0,29.97,ESE,118,0.0,0.0,80,0.00,,,0.00,,2013-06-24 03:43:00,
2013-06-23 23:53:00,71.0,65.0,29.98,ESE,118,0.0,0.0,80,0.00,,,0.00,,2013-06-24 03:53:00,